This is the latest recevied weather packets stored in our database for station/object DN9CHO-13. If no packets are shown the sender has not sent any weather packets the latest 10 day(s).
| Time | Temp. | Humidity | Pressure | Rain* | Wind** | Luminosity | Snow |
|---|---|---|---|---|---|---|---|
| 1787966726 | 15.56° C | 87% | 1015.1 hPa | 0 mm | - | 0 W/m² | - |
| 1787966122 | 15.56° C | 88% | 1015 hPa | 0 mm | - | 0 W/m² | - |
| 1787965519 | 15° C | 89% | 1015.1 hPa | 0 mm | - | 0 W/m² | - |
| 1787964935 | 15° C | 90% | 1015.1 hPa | 0 mm | - | 0 W/m² | - |
| 1787964331 | 15° C | 89% | 1015.2 hPa | 0 mm | - | 0 W/m² | - |
| 1787963728 | 15° C | 89% | 1015.1 hPa | 0 mm | - | 0 W/m² | - |
| 1787963124 | 15.56° C | 88% | 1015 hPa | 0 mm | - | 0 W/m² | - |
| 1787962520 | 15.56° C | 88% | 1015.1 hPa | 0 mm | - | 0 W/m² | - |
| 1787961916 | 15.56° C | 87% | 1015 hPa | 0 mm | - | 0 W/m² | - |
| 1787961333 | 15.56° C | 87% | 1015 hPa | 0 mm | - | 0 W/m² | - |
| 1787960729 | 15.56° C | 88% | 1014.9 hPa | 0 mm | - | 0 W/m² | - |
| 1787960125 | 15.56° C | 88% | 1014.9 hPa | 0 mm | - | 0 W/m² | - |
| 1787959521 | 15.56° C | 88% | 1014.9 hPa | 0 mm | - | 0 W/m² | - |
| 1787958918 | 15.56° C | 88% | 1015 hPa | 0 mm | - | 0 W/m² | - |
| 1787958334 | 15.56° C | 88% | 1014.9 hPa | 0 mm | - | 0 W/m² | - |
| 1787957731 | 15.56° C | 88% | 1014.8 hPa | 0 mm | - | 0 W/m² | - |
| 1787957127 | 15.56° C | 88% | 1014.9 hPa | 0 mm | - | 0 W/m² | - |
| 1787956523 | 16.11° C | 88% | 1014.8 hPa | 0 mm | - | 0 W/m² | - |
| 1787955919 | 16.11° C | 89% | 1014.7 hPa | 0 mm | - | 0 W/m² | - |
| 1787955316 | 16.11° C | 88% | 1014.7 hPa | 0 mm | - | 0 W/m² | - |
| 1787954732 | 16.11° C | 87% | 1014.8 hPa | 0 mm | - | 0 W/m² | - |
| 1787954128 | 16.67° C | 87% | 1014.6 hPa | 0 mm | - | 0 W/m² | - |
| 1787953525 | 16.67° C | 87% | 1014.6 hPa | 0 mm | - | 0 W/m² | - |
| 1787952921 | 17.22° C | 83% | 1014.7 hPa | 0 mm | - | 0 W/m² | - |
| 1787952317 | 17.22° C | 83% | 1014.7 hPa | 0 mm | - | 0 W/m² | - |
* Rain latest hour (hover to see other rain measurements)
** Current wind speed in m/s (hover to see current wind gust speed)